Location: Samoth
(37.3328°N, 88.7876°W)
Time: 21:26:38
(UTC+00:00)

Envisat - Pass Details

Date: 25 September 2021
Orbit: 764 x 766 km, 98.2° (Epoch: 15 October)

Event Time Altitude Azimuth Distance (km) Brightness Sun altitude
Rises 10:39:39 0° 18° (NNE) 3,236 6.6 -13.9°
Reaches altitude 10° 10:42:02 10° 24° (NNE) 2,306 5.9 -13.4°
Maximum altitude 10:46:58 50° 100° (E) 963 4.0 -12.5°
Drops below altitude 10° 10:51:52 10° 175° (S) 2,291 5.4 -11.5°
Sets 10:54:13 0° 181° (S) 3,212 6.1 -11.0°
